THY1GF LTFM-LOWW

Flight info

Callsign THY1GF
Flight time N/A
Altitude 36000
Route TUDBU1D/35L TUDBU DCT ETUBA DCT APROB DCT BALUX DCT TORNO DCT NATEX NATEX2W
Aircraft B738/M-SDE2E3FGHIRWXY/LB1

Departure

Time 2026-05-04 18:33
Airport İstanbul Airport (LTFM)

Arrival

Time N/A
Airport Vienna International Airport (LOWW)
Time Latitude Longitude Altitude Speed Heading
2026-05-04 18:02 41.26310 28.73616 333 ft 0 kts 71°
2026-05-04 18:05 41.26303 28.73601 333 ft 0 kts 71°
2026-05-04 18:05 41.26310 28.73616 333 ft 0 kts 71°
2026-05-04 18:21 41.26305 28.73596 329 ft 4 kts 71°
2026-05-04 18:21 41.26297 28.73562 331 ft 4 kts 73°
2026-05-04 18:21 41.26291 28.73534 329 ft 4 kts 90°
2026-05-04 18:21 41.26297 28.73502 328 ft 4 kts 133°
2026-05-04 18:22 41.26318 28.73482 329 ft 4 kts 157°
2026-05-04 18:22 41.26332 28.73475 329 ft 0 kts 161°
2026-05-04 18:25 41.26323 28.73479 330 ft 4 kts 161°
2026-05-04 18:26 41.26277 28.73500 331 ft 9 kts 165°
2026-05-04 18:26 41.26226 28.73468 330 ft 9 kts 240°
2026-05-04 18:26 41.26220 28.73391 331 ft 8 kts 269°
2026-05-04 18:26 41.26219 28.73305 330 ft 11 kts 269°
2026-05-04 18:27 41.26218 28.73194 331 ft 12 kts 266°
2026-05-04 18:27 41.26216 28.73083 332 ft 12 kts 269°
2026-05-04 18:27 41.26215 28.72986 333 ft 8 kts 270°
2026-05-04 18:27 41.26214 28.72906 333 ft 12 kts 269°
2026-05-04 18:28 41.26212 28.72765 333 ft 18 kts 269°
2026-05-04 18:28 41.26210 28.72603 330 ft 13 kts 269°
2026-05-04 18:28 41.26231 28.72525 332 ft 7 kts 332°
2026-05-04 18:28 41.26249 28.72523 331 ft 0 kts 359°
2026-05-04 18:32 41.26250 28.72523 331 ft 1 kts 359°
2026-05-04 18:32 41.26313 28.72522 332 ft 24 kts 359°
2026-05-04 18:32 41.26714 28.72513 331 ft 91 kts 359°
2026-05-04 18:32 41.27558 28.72494 329 ft 149 kts 358°
2026-05-04 18:33 41.28721 28.72468 615 ft 175 kts 356°
2026-05-04 18:33 41.29945 28.72408 1398 ft 178 kts
2026-05-04 18:33 41.31165 28.72411 2268 ft 179 kts
2026-05-04 18:33 41.32468 28.72442 2660 ft 199 kts
2026-05-04 18:34 41.33913 28.72473 3039 ft 213 kts
2026-05-04 18:34 41.35452 28.72500 3406 ft 230 kts
2026-05-04 18:34 41.37079 28.72524 4099 ft 236 kts
2026-05-04 18:34 41.38681 28.72235 5123 ft 232 kts 341°
2026-05-04 18:35 41.40140 28.71329 6053 ft 234 kts 338°
2026-05-04 18:35 41.41623 28.70382 6817 ft 238 kts 338°
2026-05-04 18:35 41.43126 28.69421 7560 ft 242 kts 339°
2026-05-04 18:35 41.44656 28.68443 8305 ft 246 kts 339°
2026-05-04 18:36 41.46211 28.67448 9061 ft 250 kts 339°
2026-05-04 18:36 41.47788 28.66438 9821 ft 254 kts 340°
2026-05-04 18:36 41.49404 28.65405 10382 ft 265 kts 340°
2026-05-04 18:36 41.51141 28.64299 10545 ft 288 kts 339°
2026-05-04 18:37 41.53021 28.63098 10721 ft 310 kts 339°
2026-05-04 18:37 41.55015 28.61821 11111 ft 323 kts 339°
2026-05-04 18:37 41.57050 28.60468 11680 ft 332 kts 334°
2026-05-04 18:37 41.58847 28.58430 12287 ft 347 kts 317°
2026-05-04 18:38 41.60454 28.56001 13008 ft 350 kts 317°
2026-05-04 18:38 41.62079 28.53561 13657 ft 354 kts 317°
2026-05-04 18:38 41.63743 28.51098 14260 ft 358 kts 318°
2026-05-04 18:38 41.65429 28.48621 14866 ft 362 kts 318°
2026-05-04 18:39 41.67096 28.46076 15463 ft 369 kts 312°
2026-05-04 18:39 41.68299 28.42979 16029 ft 382 kts 299°
2026-05-04 18:39 41.69331 28.39682 16600 ft 386 kts 299°
2026-05-04 18:39 41.70385 28.36355 17121 ft 390 kts 299°
2026-05-04 18:40 41.71461 28.32996 17657 ft 395 kts 299°
2026-05-04 18:40 41.72558 28.29603 18213 ft 399 kts 300°
2026-05-04 18:40 41.73666 28.26190 18719 ft 402 kts 300°
2026-05-04 18:40 41.74783 28.22755 19247 ft 404 kts 300°
2026-05-04 18:41 41.75907 28.19297 19773 ft 406 kts 299°
2026-05-04 18:41 41.77037 28.15820 20277 ft 408 kts 299°
2026-05-04 18:41 41.78171 28.12324 20773 ft 410 kts 299°
2026-05-04 18:41 41.79322 28.08815 21260 ft 411 kts 302°
2026-05-04 18:42 41.80810 28.05581 21713 ft 406 kts 313°
2026-05-04 18:42 41.82512 28.02630 22210 ft 406 kts 314°
2026-05-04 18:42 41.84275 27.99651 22675 ft 409 kts 314°
2026-05-04 18:42 41.86037 27.96644 23120 ft 412 kts 313°
2026-05-04 18:43 41.87791 27.93593 23571 ft 415 kts 313°
2026-05-04 18:43 41.89542 27.90501 23965 ft 417 kts 313°
2026-05-04 18:43 41.91292 27.87383 24328 ft 420 kts 312°
2026-05-04 18:43 41.93053 27.84234 24660 ft 422 kts 312°
2026-05-04 18:44 41.94824 27.81066 24955 ft 426 kts 312°
2026-05-04 18:44 41.95423 27.79995 25055 ft 427 kts 312°
2026-05-04 18:44 41.98533 27.74830 25618 ft 427 kts 317°
2026-05-04 18:44 42.00599 27.71959 25956 ft 427 kts 320°
2026-05-04 18:45 42.02722 27.69145 26280 ft 430 kts 320°
2026-05-04 18:45 42.04865 27.66328 26595 ft 432 kts 320°
2026-05-04 18:45 42.07011 27.63481 26899 ft 435 kts 320°
2026-05-04 18:45 42.09161 27.60594 27188 ft 437 kts 319°
2026-05-04 18:46 42.11300 27.57689 27512 ft 438 kts 318°
2026-05-04 18:46 42.13441 27.54757 27804 ft 441 kts 318°
2026-05-04 18:46 42.15599 27.51789 28007 ft 445 kts 318°
2026-05-04 18:46 42.17774 27.48791 28225 ft 448 kts 318°
2026-05-04 18:47 42.19955 27.45776 28531 ft 450 kts 318°
2026-05-04 18:47 42.21405 27.43771 28737 ft 451 kts 318°
2026-05-04 18:47 42.23595 27.40738 29028 ft 453 kts 318°
2026-05-04 18:47 42.25798 27.37687 29278 ft 454 kts 317°
2026-05-04 18:48 42.27999 27.34635 29667 ft 453 kts 317°
2026-05-04 18:48 42.30184 27.31602 30091 ft 451 kts 317°
2026-05-04 18:48 42.32372 27.28561 30420 ft 451 kts 317°
2026-05-04 18:48 42.34556 27.25524 30718 ft 450 kts 317°
2026-05-04 18:49 42.36737 27.22489 31019 ft 450 kts 317°
2026-05-04 18:49 42.38914 27.19456 31340 ft 449 kts 317°
2026-05-04 18:49 42.41083 27.16430 31635 ft 448 kts 317°
2026-05-04 18:49 42.43242 27.13416 31994 ft 446 kts 317°
2026-05-04 18:50 42.45398 27.10402 32273 ft 445 kts 317°
2026-05-04 18:50 42.47555 27.07384 32495 ft 447 kts 317°
2026-05-04 18:50 42.49714 27.04361 32765 ft 446 kts 317°
2026-05-04 18:50 42.51871 27.01336 33076 ft 445 kts 317°
2026-05-04 18:51 42.54014 26.98327 33380 ft 444 kts 317°
2026-05-04 18:51 42.56159 26.95313 33627 ft 444 kts 317°
2026-05-04 18:51 42.58304 26.92297 33851 ft 444 kts 316°
2026-05-04 18:51 42.60452 26.89272 34085 ft 444 kts 316°
2026-05-04 18:52 42.62589 26.86260 34324 ft 443 kts 316°
2026-05-04 18:52 42.64728 26.83241 34570 ft 442 kts 316°
2026-05-04 18:52 42.66854 26.80237 34812 ft 441 kts 316°
2026-05-04 18:52 42.68950 26.77273 35029 ft 440 kts 316°
2026-05-04 18:53 42.71094 26.74237 35264 ft 439 kts 316°
2026-05-04 18:53 42.73205 26.71246 35498 ft 438 kts 315°
2026-05-04 18:53 42.75133 26.68511 35745 ft 436 kts 315°
2026-05-04 18:53 42.77226 26.65539 35986 ft 434 kts 315°
2026-05-04 18:54 42.79318 26.62567 36041 ft 437 kts 315°
2026-05-04 18:54 42.83559 26.56606 36047 ft 437 kts 317°
2026-05-04 18:55 42.87884 26.50835 36046 ft 434 kts 317°
2026-05-04 18:55 42.94339 26.42253 36048 ft 430 kts 317°
2026-05-04 18:56 42.98573 26.36571 36055 ft 430 kts 317°
2026-05-04 18:56 43.02863 26.30792 36057 ft 436 kts 316°
2026-05-04 18:57 43.07193 26.24940 36045 ft 439 kts 316°
2026-05-04 18:57 43.11548 26.19042 36051 ft 441 kts 316°
2026-05-04 18:58 43.15908 26.13125 36045 ft 441 kts 316°
2026-05-04 18:58 43.20252 26.07218 36045 ft 440 kts 316°
2026-05-04 18:59 43.24583 26.01316 36034 ft 437 kts 316°
2026-05-04 18:59 43.28882 25.95445 36039 ft 434 kts 316°
2026-05-04 19:00 43.33146 25.89610 36044 ft 431 kts 316°
2026-05-04 19:00 43.37380 25.83804 36053 ft 429 kts 316°
2026-05-04 19:01 43.41590 25.78019 36046 ft 427 kts 316°
2026-05-04 19:01 43.45784 25.72244 36055 ft 426 kts 316°
2026-05-04 19:02 43.49969 25.66469 36053 ft 426 kts 316°
2026-05-04 19:02 43.54158 25.60677 36056 ft 427 kts 316°
2026-05-04 19:03 43.58354 25.54863 36053 ft 429 kts 315°
2026-05-04 19:03 43.62567 25.49013 36060 ft 430 kts 315°
2026-05-04 19:04 43.66793 25.43132 36068 ft 432 kts 315°
2026-05-04 19:04 43.71031 25.37223 36063 ft 434 kts 315°
2026-05-04 19:05 43.75285 25.31277 36056 ft 435 kts 315°
2026-05-04 19:05 43.79543 25.25314 36062 ft 436 kts 315°
2026-05-04 19:06 43.83806 25.19330 36063 ft 437 kts 315°
2026-05-04 19:06 43.88043 25.13370 36065 ft 437 kts 315°
2026-05-04 19:07 43.92301 25.07367 36058 ft 437 kts 315°
2026-05-04 19:07 43.96558 25.01354 36060 ft 436 kts 315°
2026-05-04 19:08 44.00680 24.95169 36060 ft 436 kts 312°
2026-05-04 19:08 44.04679 24.88774 36058 ft 435 kts 311°
2026-05-04 19:09 44.08622 24.82460 36060 ft 435 kts 311°
2026-05-04 19:09 44.12599 24.76127 36060 ft 434 kts 311°
2026-05-04 19:10 44.16575 24.69803 36069 ft 434 kts 311°
2026-05-04 19:10 44.20549 24.63474 36065 ft 434 kts 311°
2026-05-04 19:11 44.24519 24.57139 36066 ft 434 kts 311°
2026-05-04 19:11 44.28481 24.50800 36066 ft 433 kts 311°
2026-05-04 19:12 44.34416 24.41277 36075 ft 433 kts 311°
2026-05-04 19:13 44.38371 24.34915 36067 ft 433 kts 311°
2026-05-04 19:13 44.42323 24.28541 36053 ft 434 kts 311°
2026-05-04 19:14 44.46270 24.22162 36071 ft 434 kts 311°
2026-05-04 19:14 44.50219 24.15767 36061 ft 434 kts 311°
2026-05-04 19:15 44.54166 24.09359 36069 ft 435 kts 311°
2026-05-04 19:15 44.58118 24.02928 36056 ft 435 kts 311°
2026-05-04 19:16 44.62066 23.96488 36068 ft 436 kts 312°
2026-05-04 19:16 44.66016 23.90031 36068 ft 436 kts 312°
2026-05-04 19:17 44.69967 23.83559 36065 ft 436 kts 312°
2026-05-04 19:17 44.73918 23.77071 36068 ft 437 kts 311°
2026-05-04 19:18 44.77863 23.70578 36060 ft 437 kts 312°
2026-05-04 19:18 44.81780 23.64116 36067 ft 436 kts 312°
2026-05-04 19:19 44.85715 23.57609 36061 ft 436 kts 312°
2026-05-04 19:19 44.89647 23.51093 36060 ft 436 kts 312°
2026-05-04 19:20 44.93572 23.44574 36067 ft 435 kts 312°
2026-05-04 19:20 44.97486 23.38056 36067 ft 435 kts 312°
2026-05-04 19:21 45.01395 23.31533 36073 ft 435 kts 312°
2026-05-04 19:21 45.05295 23.25010 36077 ft 434 kts 312°
2026-05-04 19:22 45.09188 23.18484 36077 ft 433 kts 312°
2026-05-04 19:22 45.13069 23.11961 36081 ft 433 kts 312°
2026-05-04 19:23 45.16949 23.05426 36090 ft 433 kts 312°
2026-05-04 19:23 45.20821 22.98890 36095 ft 433 kts 312°
2026-05-04 19:24 45.24690 22.92343 36104 ft 433 kts 312°
2026-05-04 19:24 45.28556 22.85786 36097 ft 433 kts 312°
2026-05-04 19:25 45.32421 22.79215 36105 ft 433 kts 312°
2026-05-04 19:25 45.36275 22.72647 36111 ft 433 kts 312°
2026-05-04 19:26 45.40103 22.66108 36110 ft 432 kts 311°
2026-05-04 19:26 45.43960 22.59505 36111 ft 433 kts 311°
2026-05-04 19:27 45.47798 22.52920 36114 ft 433 kts 311°
2026-05-04 19:27 45.51643 22.46307 36117 ft 434 kts 311°
2026-05-04 19:28 45.55490 22.39674 36112 ft 433 kts 311°
2026-05-04 19:28 45.59322 22.33050 36106 ft 432 kts 311°
2026-05-04 19:29 45.63147 22.26424 36098 ft 432 kts 311°
2026-05-04 19:29 45.66965 22.19793 36098 ft 432 kts 311°
2026-05-04 19:30 45.70781 22.13152 36094 ft 432 kts 311°
2026-05-04 19:30 45.74590 22.06506 36088 ft 432 kts 311°
2026-05-04 19:31 45.78395 21.99851 36092 ft 431 kts 311°
2026-05-04 19:31 45.82166 21.93240 36087 ft 431 kts 311°
2026-05-04 19:32 45.85981 21.86537 36088 ft 431 kts 311°
2026-05-04 19:32 45.89740 21.79915 36072 ft 431 kts 311°
2026-05-04 19:33 45.93516 21.73249 36085 ft 430 kts 311°
2026-05-04 19:33 45.97282 21.66583 36079 ft 430 kts 311°
2026-05-04 19:34 46.01050 21.59900 36083 ft 430 kts 311°
2026-05-04 19:34 46.04813 21.53207 36075 ft 430 kts 311°
2026-05-04 19:35 46.08572 21.46504 36071 ft 430 kts 311°
2026-05-04 19:35 46.12310 21.39788 36078 ft 430 kts 311°
2026-05-04 19:36 46.15452 21.34167 36078 ft 430 kts 311°
2026-05-04 19:36 46.19195 21.27444 36076 ft 430 kts 310°
2026-05-04 19:37 46.22942 21.20709 36068 ft 430 kts 311°
2026-05-04 19:37 46.26514 21.13766 36082 ft 431 kts 305°
2026-05-04 19:38 46.29620 21.06331 36079 ft 432 kts 303°
2026-05-04 19:38 46.32683 20.99104 36070 ft 433 kts 304°
2026-05-04 19:39 46.35924 20.91579 36071 ft 433 kts 304°
2026-05-04 19:39 46.39119 20.84182 36064 ft 433 kts 304°
2026-05-04 19:40 46.42311 20.76773 36067 ft 434 kts 303°
2026-05-04 19:40 46.45502 20.69340 36065 ft 434 kts 303°
2026-05-04 19:41 46.48688 20.61896 36065 ft 434 kts 303°
2026-05-04 19:41 46.51870 20.54443 36050 ft 434 kts 303°
2026-05-04 19:42 46.55046 20.46983 36056 ft 434 kts 303°
2026-05-04 19:42 46.58218 20.39512 36060 ft 434 kts 303°
2026-05-04 19:43 46.61385 20.32034 36064 ft 434 kts 303°
2026-05-04 19:43 46.64549 20.24541 36055 ft 435 kts 303°
2026-05-04 19:44 46.67708 20.17040 36055 ft 434 kts 303°
2026-05-04 19:44 46.70861 20.09535 36058 ft 434 kts 303°
2026-05-04 19:45 46.74010 20.02017 36060 ft 434 kts 303°
2026-05-04 19:45 46.77153 19.94493 36067 ft 434 kts 303°
2026-05-04 19:46 46.80281 19.86984 36069 ft 434 kts 302°
2026-05-04 19:46 46.83411 19.79450 36078 ft 434 kts 302°
2026-05-04 19:47 46.86533 19.71916 36076 ft 434 kts 302°
2026-05-04 19:47 46.89651 19.64369 36046 ft 434 kts 302°
2026-05-04 19:48 46.92763 19.56817 36041 ft 433 kts 302°
2026-05-04 19:48 46.95867 19.49262 36046 ft 433 kts 302°
2026-05-04 19:49 46.98962 19.41709 36051 ft 432 kts 302°
2026-05-04 19:49 47.02040 19.34148 36042 ft 432 kts 302°
2026-05-04 19:49 47.03566 19.30402 36025 ft 421 kts 301°
2026-05-04 19:50 47.05045 19.26778 36024 ft 407 kts 301°
2026-05-04 19:50 47.06473 19.23274 36002 ft 393 kts 301°
2026-05-04 19:50 47.07856 19.19873 35887 ft 383 kts 301°
2026-05-04 19:51 47.10571 19.13186 35988 ft 385 kts 301°
2026-05-04 19:51 47.13338 19.06350 35688 ft 394 kts 301°
2026-05-04 19:51 47.14740 19.02878 34887 ft 397 kts 301°
2026-05-04 19:52 47.16162 18.99351 33902 ft 405 kts 301°
2026-05-04 19:52 47.17609 18.95757 32870 ft 411 kts 301°
2026-05-04 19:52 47.19065 18.92137 32094 ft 411 kts 301°
2026-05-04 19:52 47.20511 18.88533 31498 ft 406 kts 301°
2026-05-04 19:53 47.21916 18.85030 30924 ft 400 kts 301°
2026-05-04 19:53 47.23322 18.81519 30272 ft 397 kts 301°
2026-05-04 19:53 47.24719 18.78025 29522 ft 395 kts 301°
2026-05-04 19:53 47.26103 18.74561 28958 ft 391 kts 301°
2026-05-04 19:54 47.27473 18.71129 28497 ft 388 kts 301°
2026-05-04 19:54 47.28833 18.67714 28066 ft 385 kts 301°
2026-05-04 19:54 47.30181 18.64329 27655 ft 382 kts 300°
2026-05-04 19:54 47.31518 18.60965 27261 ft 378 kts 300°
2026-05-04 19:55 47.32841 18.57632 26867 ft 375 kts 300°
2026-05-04 19:55 47.34152 18.54325 26480 ft 372 kts 300°
2026-05-04 19:55 47.35452 18.51042 26107 ft 370 kts 300°
2026-05-04 19:55 47.36743 18.47779 25738 ft 367 kts 300°
2026-05-04 19:56 47.38026 18.44533 25346 ft 365 kts 300°
2026-05-04 19:56 47.39296 18.41313 24968 ft 362 kts 300°
2026-05-04 19:56 47.40560 18.38106 24594 ft 361 kts 300°
2026-05-04 19:56 47.41818 18.34911 24228 ft 359 kts 300°
2026-05-04 19:57 47.43068 18.31731 23846 ft 358 kts 300°
2026-05-04 19:57 47.44306 18.28579 23441 ft 352 kts 300°
2026-05-04 19:57 47.45525 18.25471 23025 ft 346 kts 300°
2026-05-04 19:57 47.46717 18.22431 22640 ft 338 kts 300°
2026-05-04 19:58 47.47884 18.19449 22293 ft 332 kts 300°
2026-05-04 19:58 47.49032 18.16512 21935 ft 328 kts 299°
2026-05-04 19:58 47.50166 18.13610 21589 ft 324 kts 299°
2026-05-04 19:58 47.51309 18.10679 21275 ft 337 kts 299°
2026-05-04 19:59 47.52503 18.07612 20918 ft 350 kts 299°
2026-05-04 19:59 47.53720 18.04484 20536 ft 350 kts 299°
2026-05-04 19:59 47.54929 18.01375 20148 ft 348 kts 299°
2026-05-04 19:59 47.56133 17.98275 20026 ft 349 kts 298°
2026-05-04 20:00 47.57327 17.95190 19976 ft 340 kts 298°
2026-05-04 20:00 47.58479 17.92198 19922 ft 330 kts 298°
2026-05-04 20:00 47.59614 17.89267 19544 ft 329 kts 298°
2026-05-04 20:00 47.60770 17.86275 18865 ft 339 kts 298°
2026-05-04 20:01 47.61952 17.83223 18372 ft 343 kts 298°
2026-05-04 20:01 47.63134 17.80168 18030 ft 341 kts 298°
2026-05-04 20:01 47.64305 17.77135 17686 ft 337 kts 298°
2026-05-04 20:01 47.65462 17.74123 17312 ft 335 kts 297°
2026-05-04 20:02 47.66615 17.71125 16920 ft 334 kts 297°
2026-05-04 20:02 47.67764 17.68137 16542 ft 333 kts 297°
2026-05-04 20:02 47.68904 17.65165 16169 ft 331 kts 297°
2026-05-04 20:02 47.70042 17.62197 15800 ft 330 kts 297°
2026-05-04 20:03 47.71173 17.59244 15451 ft 328 kts 297°
2026-05-04 20:03 47.72292 17.56316 15100 ft 327 kts 297°
2026-05-04 20:03 47.73411 17.53387 14741 ft 325 kts 297°
2026-05-04 20:03 47.74385 17.50386 14374 ft 320 kts 281°
2026-05-04 20:04 47.74566 17.47144 14069 ft 312 kts 264°
2026-05-04 20:04 47.74377 17.44001 14016 ft 299 kts 261°
2026-05-04 20:04 47.74143 17.40985 13973 ft 287 kts 261°
2026-05-04 20:04 47.73914 17.38100 13956 ft 276 kts 261°
2026-05-04 20:05 47.73696 17.35305 13962 ft 272 kts 261°
2026-05-04 20:05 47.73474 17.32417 13997 ft 294 kts 261°
2026-05-04 20:05 47.73242 17.29336 13988 ft 311 kts 261°
2026-05-04 20:05 47.72997 17.26016 13997 ft 329 kts 261°
2026-05-04 20:06 47.72750 17.22619 13975 ft 339 kts 262°
2026-05-04 20:06 47.72500 17.19130 13957 ft 340 kts 262°
2026-05-04 20:06 47.72246 17.15607 13976 ft 351 kts 262°
2026-05-04 20:06 47.71978 17.11945 13969 ft 361 kts 262°
2026-05-04 20:07 47.71745 17.08216 13956 ft 363 kts 268°
2026-05-04 20:07 47.72203 17.04544 13971 ft 365 kts 289°
2026-05-04 20:07 47.73425 17.01225 13962 ft 369 kts 302°
2026-05-04 20:07 47.74949 16.98156 13961 ft 369 kts 304°
2026-05-04 20:08 47.76510 16.95129 13952 ft 369 kts 305°
2026-05-04 20:08 47.78072 16.92105 13948 ft 369 kts 305°
2026-05-04 20:08 47.79624 16.89070 13948 ft 369 kts 304°
2026-05-04 20:08 47.81169 16.86017 13952 ft 369 kts 304°
2026-05-04 20:09 47.82706 16.82960 13955 ft 369 kts 304°
2026-05-04 20:09 47.84240 16.79892 13951 ft 370 kts 304°
2026-05-04 20:09 47.85772 16.76819 13942 ft 370 kts 303°
2026-05-04 20:09 47.87308 16.73735 13941 ft 368 kts 303°
2026-05-04 20:10 47.88809 16.70723 13875 ft 357 kts 303°
2026-05-04 20:10 47.90263 16.67801 13802 ft 345 kts 303°
2026-05-04 20:10 47.91735 16.65123 13687 ft 331 kts 311°
2026-05-04 20:10 47.93383 16.62794 13577 ft 317 kts 315°
2026-05-04 20:11 47.94991 16.60652 13467 ft 303 kts 315°
2026-05-04 20:11 47.96533 16.58570 13167 ft 297 kts 314°
2026-05-04 20:11 47.98038 16.56486 12980 ft 289 kts 313°
2026-05-04 20:11 47.99501 16.54432 12666 ft 289 kts 313°
2026-05-04 20:12 48.00946 16.52391 12188 ft 292 kts 313°
2026-05-04 20:12 48.02364 16.50165 11778 ft 291 kts 301°
2026-05-04 20:12 48.03391 16.47587 11529 ft 286 kts 296°
2026-05-04 20:12 48.04370 16.45001 11264 ft 286 kts 296°
2026-05-04 20:13 48.05367 16.42439 10991 ft 285 kts 297°
2026-05-04 20:13 48.06374 16.39888 10719 ft 284 kts 297°
2026-05-04 20:13 48.07380 16.37358 10451 ft 283 kts 298°
2026-05-04 20:13 48.08369 16.34874 10134 ft 280 kts 298°
2026-05-04 20:14 48.09365 16.32373 9704 ft 280 kts 298°
2026-05-04 20:14 48.10364 16.29857 9182 ft 282 kts 298°
2026-05-04 20:14 48.11370 16.27324 8674 ft 284 kts 298°
2026-05-04 20:14 48.12360 16.24776 8169 ft 282 kts 295°
2026-05-04 20:15 48.13233 16.22155 7643 ft 281 kts 293°
2026-05-04 20:15 48.14075 16.19512 7141 ft 282 kts 295°
2026-05-04 20:15 48.15308 16.17220 6581 ft 289 kts 323°
2026-05-04 20:15 48.17158 16.16087 6047 ft 291 kts 353°
2026-05-04 20:16 48.19159 16.16365 5516 ft 290 kts 18°
2026-05-04 20:16 48.21042 16.17449 5079 ft 289 kts 22°
2026-05-04 20:16 48.22712 16.18932 4960 ft 271 kts 49°
2026-05-04 20:16 48.23481 16.21292 4974 ft 243 kts 88°
2026-05-04 20:17 48.23119 16.23610 4999 ft 222 kts 123°
2026-05-04 20:17 48.22378 16.25563 4988 ft 211 kts 121°
2026-05-04 20:17 48.21580 16.27402 4826 ft 209 kts 129°
2026-05-04 20:17 48.20718 16.29149 4618 ft 209 kts 131°
2026-05-04 20:18 48.19819 16.30854 4403 ft 208 kts 132°
2026-05-04 20:18 48.19001 16.32626 4120 ft 209 kts 121°
2026-05-04 20:18 48.18377 16.34568 3840 ft 206 kts 119°
2026-05-04 20:18 48.17752 16.36541 3331 ft 210 kts 121°
2026-05-04 20:19 48.17108 16.38524 2812 ft 211 kts 122°
2026-05-04 20:19 48.16480 16.40452 2510 ft 203 kts 122°
2026-05-04 20:19 48.15877 16.42303 2258 ft 192 kts 122°
2026-05-04 20:19 48.15314 16.44031 1968 ft 176 kts 125°
2026-05-04 20:20 48.14801 16.45609 1749 ft 160 kts 126°
2026-05-04 20:20 48.14492 16.46558 1609 ft 148 kts 126°
2026-05-04 20:20 48.14083 16.47847 1494 ft 129 kts 124°
2026-05-04 20:20 48.13694 16.49055 1236 ft 128 kts 122°
2026-05-04 20:21 48.13281 16.50238 1076 ft 129 kts 119°
2026-05-04 20:21 48.12905 16.51452 891 ft 127 kts 120°
2026-05-04 20:21 48.12137 16.53789 615 ft 121 kts 116°
2026-05-04 20:22 48.11812 16.54779 618 ft 82 kts 116°